Location: Newark
(63.1158°N, 8.1461°E)
Time: 06:46:37
(UTC+00:00)

Envisat - Pass Details

Date: 11 December 2019
Orbit: 764 x 766 km, 98.1° (Epoch: 26 January)

Event Time Altitude Azimuth Distance (km) Brightness Sun altitude
Rises 15:24:47 0° 124° (SE) 3,234 6.0 -8.5°
Reaches altitude 10° 15:27:14 10° 116° (ESE) 2,311 5.2 -8.7°
Maximum altitude 15:31:49 35° 52° (NE) 1,230 3.6 -9.1°
Drops below altitude 10° 15:36:25 10° 348° (NNW) 2,321 5.3 -9.5°
Sets 15:38:53 0° 340° (NNW) 3,251 6.1 -9.8°
